Measurements were made at the meteorological tower in Juelich (50.90 N / 6.40 E) at an altitude of 100 m,
"Instrument: Fast Greenhouse Gas Analyzer (FGGA), Los Gatos Inc.",
Responsible PI: Dr. Marc von Hobe; Forschungszentrum Juelich GmbH; IEK-7; email: m.von.hobe@fz-juelich.de,
NaN or negative numbers are fill values (i.e. no valid measurements were made at that time),
Uncertainties are given as the 1-sigma standard deviation over each 10 minute intervals. In each interval ~600 individual measurements are carried out so that the standard error of the mean is approximately sigma/sqrt(600).,
time_utc,CO2_ppm,stdev_CO2_ppm,CH4_ppm,stdev_CH4_ppm,H2O_ppm,stdev_H2O_ppm
"2015-12-01 00:05:00 000",397.474,0.760390,1.93995,0.0130170,11061.0,91.5844
"2015-12-01 00:15:00 000",397.744,0.764889,1.93968,0.0152745,11085.8,96.4465
"2015-12-01 00:25:00 000",398.133,0.758659,1.94229,0.0173152,11100.5,91.8071
"2015-12-01 00:35:00 000",398.406,0.759595,1.95235,0.0146672,11114.6,97.4328
"2015-12-01 00:45:00 000",398.235,0.755025,1.94209,0.0129064,11116.7,98.0283
"2015-12-01 00:55:00 000",398.216,0.747819,1.94776,0.0148106,11132.7,95.0083
"2015-12-01 01:05:00 000",398.171,0.778437,1.94500,0.0149213,11120.9,97.8243
"2015-12-01 01:15:00 000",398.394,0.764741,1.94563,0.0122609,11094.5,94.3193
"2015-12-01 01:25:00 000",398.099,0.758310,1.96024,0.0144546,11162.0,102.243
"2015-12-01 01:35:00 000",398.027,0.795359,1.97364,0.0207030,11185.1,97.4274
"2015-12-01 01:45:00 000",398.009,0.787678,1.96535,0.0222682,11152.8,99.0914
"2015-12-01 01:55:00 000",398.001,0.763340,1.95701,0.0188685,11186.4,101.158
"2015-12-01 02:05:00 000",398.048,0.725023,1.96686,0.0171459,11191.2,100.481
"2015-12-01 02:15:00 000",398.077,0.767713,1.95418,0.0219347,11205.9,106.014
"2015-12-01 02:25:00 000",398.714,1.22969,1.92341,0.0321838,11208.3,104.495
"2015-12-01 02:35:00 000",398.928,0.781569,1.90183,0.00429634,11082.8,128.300
"2015-12-01 02:45:00 000",398.662,0.808032,1.90259,0.00404787,10910.1,113.907
"2015-12-01 02:55:00 000",398.287,0.770599,1.90329,0.00401777,10790.4,101.432
"2015-12-01 03:05:00 000",397.898,0.804761,1.90535,0.00387516,10631.8,135.578
"2015-12-01 03:15:00 000",397.725,0.781850,1.90848,0.00389754,10434.2,105.533
"2015-12-01 03:25:00 000",398.243,0.774686,1.90809,0.00394850,10328.7,106.289
"2015-12-01 03:35:00 000",398.765,0.810021,1.91379,0.00394542,10304.6,96.1673
"2015-12-01 03:45:00 000",398.548,0.751673,1.91806,0.00391756,10318.6,93.8998
"2015-12-01 03:55:00 000",398.589,0.793987,1.91928,0.00423309,10338.6,93.4575
"2015-12-01 04:05:00 000",398.493,0.779272,1.91393,0.00458288,10355.2,98.9831
"2015-12-01 04:15:00 000",399.108,0.810850,1.91162,0.00389695,10360.6,93.7699
"2015-12-01 04:25:00 000",399.661,0.851912,1.90870,0.00382249,10346.1,89.5485
"2015-12-01 04:35:00 000",399.927,0.810239,1.90777,0.00400842,10338.1,85.0964
"2015-12-01 04:45:00 000",399.914,0.863126,1.90925,0.00417927,10265.0,104.146
"2015-12-01 04:55:00 000",399.545,0.786255,1.90891,0.00440344,9998.51,106.881
"2015-12-01 05:05:00 000",398.997,1.05836,1.90648,0.00822736,9823.09,112.414
"2015-12-01 05:15:00 000",399.108,0.807334,1.90158,0.00454413,9717.16,90.0296
"2015-12-01 05:25:00 000",398.335,0.840948,1.89802,0.00396474,9646.51,90.8129
"2015-12-01 05:35:00 000",398.473,0.811435,1.89883,0.00421610,9577.39,93.1647
"2015-12-01 05:45:00 000",399.210,0.848271,1.90464,0.00358463,9557.70,84.8584
"2015-12-01 05:55:00 000",400.375,0.804379,1.90892,0.00420917,9568.39,94.4657
"2015-12-01 06:05:00 000",401.583,0.799107,1.92464,0.00533414,9529.99,110.855
"2015-12-01 06:15:00 000",401.488,0.813227,1.92977,0.00433244,9373.93,91.1268
"2015-12-01 06:25:00 000",401.799,0.902520,1.91695,0.00594052,9249.60,158.064
"2015-12-01 06:35:00 000",401.193,0.854124,1.91287,0.00384360,8941.35,96.0534
"2015-12-01 06:45:00 000",402.099,1.08024,1.91473,0.00394891,8902.55,91.5586
"2015-12-01 06:55:00 000",401.577,1.15183,1.91396,0.00505621,8877.97,85.3463
"2015-12-01 07:05:00 000",402.436,0.836026,1.91727,0.00425768,8876.36,82.1006
"2015-12-01 07:15:00 000",401.949,0.942774,1.91445,0.00383152,8881.81,86.6711
"2015-12-01 07:25:00 000",401.304,0.892002,1.91637,0.00426783,8925.20,92.3545
"2015-12-01 07:35:00 000",401.733,0.925979,1.92035,0.00461203,8969.57,90.7952
"2015-12-01 07:45:00 000",402.112,1.04575,1.92088,0.00435807,8974.83,89.6453
"2015-12-01 07:55:00 000",402.598,1.01154,1.92216,0.00421874,9013.56,92.5767
"2015-12-01 08:05:00 000",401.889,0.869046,1.92126,0.00411628,8998.74,89.8320
"2015-12-01 08:15:00 000",400.668,0.798547,1.91900,0.00387763,8997.11,93.8724
"2015-12-01 08:25:00 000",401.330,0.870694,1.91974,0.00364660,9125.04,111.322
"2015-12-01 08:35:00 000",402.448,1.11477,1.91905,0.00379111,9153.25,101.849
"2015-12-01 08:45:00 000",402.206,1.32115,1.91972,0.00423458,9087.91,106.830
"2015-12-01 08:55:00 000",401.859,0.749313,1.92138,0.00381350,9064.87,113.440
"2015-12-01 09:05:00 000",402.339,1.02243,1.92173,0.00425763,9086.34,117.924
"2015-12-01 09:15:00 000",402.509,1.04140,1.92354,0.00451162,9125.29,111.403
"2015-12-01 09:25:00 000",403.853,1.23778,1.92999,0.00599577,9175.62,115.394
"2015-12-01 09:35:00 000",404.357,1.48569,1.93401,0.00753861,9172.40,126.546
"2015-12-01 09:45:00 000",403.714,1.06671,1.93753,0.00929800,9121.52,108.446
"2015-12-01 09:55:00 000",403.147,0.926839,1.93157,0.00632503,9125.78,108.394
"2015-12-01 10:05:00 000",403.065,0.810697,1.92874,0.00507934,9170.79,116.288
"2015-12-01 10:15:00 000",403.318,0.865451,1.93265,0.00545692,9215.72,111.513
"2015-12-01 10:25:00 000",403.269,0.805111,1.93690,0.00621951,9222.86,109.137
"2015-12-01 10:35:00 000",403.758,0.819242,1.94436,0.00458480,9180.52,112.619
"2015-12-01 10:45:00 000",404.295,0.803232,1.95061,0.00812878,9197.91,106.109
"2015-12-01 10:55:00 000",404.920,0.929912,1.94339,0.0102189,9261.58,114.145
"2015-12-01 11:05:00 000",404.556,0.889345,1.93982,0.00642613,9373.20,107.290
"2015-12-01 11:15:00 000",404.949,0.800953,1.93308,0.00559659,9430.55,102.670
"2015-12-01 11:25:00 000",404.332,0.836952,1.93258,0.00429726,9488.69,89.9856
"2015-12-01 11:35:00 000",404.495,0.830616,1.93947,0.00566515,9523.81,91.9803
"2015-12-01 11:45:00 000",405.255,0.868160,1.94637,0.00392389,9594.05,99.9589
"2015-12-01 11:55:00 000",405.786,0.830085,1.94633,0.00392960,9714.04,87.9364
"2015-12-01 12:05:00 000",407.105,0.810862,1.95004,0.00399503,9829.56,88.0433
"2015-12-01 12:15:00 000",407.786,0.904553,1.95090,0.00437955,9870.08,87.8831
"2015-12-01 12:25:00 000",408.530,0.876286,1.95570,0.00573454,9897.83,96.0250
"2015-12-01 12:35:00 000",408.352,0.849123,1.95841,0.00559268,10120.8,131.771
"2015-12-01 12:45:00 000",407.948,0.829150,1.95682,0.00545876,10448.6,119.090
"2015-12-01 12:55:00 000",406.675,1.08878,1.98059,0.0152508,10853.4,179.742
"2015-12-01 13:05:00 000",404.502,1.59644,2.07212,0.0572736,11292.9,168.844
"2015-12-01 13:15:00 000",401.073,1.03315,1.92651,0.0209576,11710.9,140.052
"2015-12-01 13:25:00 000",400.233,0.815522,1.91131,0.00930531,11839.2,107.399
"2015-12-01 13:35:00 000",399.767,0.790369,1.91313,0.0101601,11891.9,109.997
"2015-12-01 13:45:00 000",398.969,0.791971,1.93308,0.0186961,11865.7,109.545
"2015-12-01 13:55:00 000",399.120,0.737009,1.91564,0.0142804,11870.9,113.700
"2015-12-01 14:05:00 000",399.407,0.783243,1.90206,0.00730381,11842.6,115.111
"2015-12-01 14:15:00 000",399.175,0.774341,1.93742,0.0266721,11769.0,124.524
"2015-12-01 14:25:00 000",399.653,0.739138,1.99260,0.0379391,11794.2,124.305
"2015-12-01 14:35:00 000",399.592,0.827505,1.92667,0.0235759,11819.5,125.709
"2015-12-01 14:45:00 000",399.318,0.769864,1.95619,0.0359362,11811.9,121.599
"2015-12-01 14:55:00 000",399.152,0.798152,1.99316,0.0231839,11778.2,123.352
"2015-12-01 15:05:00 000",398.536,0.813906,1.98314,0.0247256,11776.1,122.518
"2015-12-01 15:15:00 000",398.141,0.767793,1.97466,0.0284691,11772.3,128.489
"2015-12-01 15:25:00 000",398.133,0.777736,1.94544,0.0450107,11777.8,123.944
"2015-12-01 15:35:00 000",398.601,0.786471,1.90362,0.00701858,11803.8,121.849
"2015-12-01 15:45:00 000",398.784,0.783604,1.97193,0.0461086,11849.8,127.640
"2015-12-01 15:55:00 000",398.469,0.734372,1.99916,0.0302569,11810.6,116.315
"2015-12-01 16:05:00 000",398.540,0.757726,1.91976,0.0261517,11907.0,126.938
"2015-12-01 16:15:00 000",399.197,0.829552,1.99672,0.0430972,11994.0,122.246
"2015-12-01 16:25:00 000",399.201,0.754784,1.96236,0.0251772,11938.6,121.624
"2015-12-01 16:35:00 000",398.959,0.862115,1.93503,0.0209386,11866.5,131.107
"2015-12-01 16:45:00 000",398.574,0.800646,2.04195,0.0486305,11885.9,122.729
"2015-12-01 16:55:00 000",398.183,0.757753,1.94417,0.0402563,11847.2,123.489
"2015-12-01 17:05:00 000",398.437,0.742853,1.95815,0.0553400,11827.2,123.692
"2015-12-01 17:15:00 000",398.538,0.816024,2.01611,0.0355151,11727.1,129.512
"2015-12-01 17:25:00 000",399.434,0.805183,2.01633,0.0368622,11745.0,119.934
"2015-12-01 17:35:00 000",399.303,0.728440,1.94916,0.0351685,11727.0,124.328
"2015-12-01 17:45:00 000",398.781,0.758824,2.00593,0.0239755,11679.5,120.295
"2015-12-01 17:55:00 000",398.725,0.800519,1.98134,0.0308972,11724.2,121.745
"2015-12-01 18:05:00 000",398.763,0.718077,1.96225,0.0158097,11742.1,115.677
"2015-12-01 18:15:00 000",398.863,0.819253,1.94963,0.0180577,11750.6,119.927
"2015-12-01 18:25:00 000",398.924,0.702706,1.94752,0.0153607,11756.3,128.019
"2015-12-01 18:35:00 000",399.164,0.769256,1.95194,0.0211772,11758.9,116.499
"2015-12-01 18:45:00 000",399.122,0.774454,1.96513,0.0205317,11776.0,120.362
"2015-12-01 18:55:00 000",399.160,0.773415,1.98129,0.0246929,11762.8,116.402
"2015-12-01 19:05:00 000",398.898,0.747745,1.98055,0.0223011,11773.1,129.186
"2015-12-01 19:15:00 000",398.493,0.730536,1.96658,0.0212211,11798.0,122.432
"2015-12-01 19:25:00 000",398.680,0.736988,1.96919,0.0256841,11792.8,118.866
"2015-12-01 19:35:00 000",398.820,0.723744,1.99507,0.0218974,11776.0,127.080
"2015-12-01 19:45:00 000",398.794,0.736113,2.02279,0.0365281,11769.1,130.599
"2015-12-01 19:55:00 000",399.080,0.710969,2.02992,0.0485085,11677.4,122.720
"2015-12-01 20:05:00 000",399.006,0.769017,1.91577,0.0195907,11616.9,119.043
"2015-12-01 20:15:00 000",398.511,0.739222,1.90697,0.0116237,11709.0,120.858
"2015-12-01 20:25:00 000",398.437,0.787927,1.91777,0.0211543,11769.0,115.220
"2015-12-01 20:35:00 000",398.958,0.762014,1.97774,0.0275824,11754.8,112.544
"2015-12-01 20:45:00 000",399.447,0.762455,1.95895,0.0247643,11724.3,119.068
"2015-12-01 20:55:00 000",399.581,0.767633,1.96375,0.0329396,11662.6,121.239
"2015-12-01 21:05:00 000",399.500,0.746296,1.99293,0.0348313,11625.7,121.020
"2015-12-01 21:15:00 000",399.605,0.736261,1.99238,0.0287899,11506.6,123.946
"2015-12-01 21:25:00 000",399.689,0.801256,1.94152,0.0171645,11340.8,134.547
"2015-12-01 21:35:00 000",399.943,0.746363,1.93411,0.0146132,11034.8,155.310
"2015-12-01 21:45:00 000",400.022,0.786715,1.93284,0.00990746,10776.6,126.566
"2015-12-01 21:55:00 000",399.558,0.792344,1.92303,0.0116992,10654.4,119.195
"2015-12-01 22:05:00 000",399.790,0.712070,1.91039,0.00600941,10453.0,133.650
"2015-12-01 22:15:00 000",400.357,0.745084,1.92710,0.00989469,10255.7,117.856
"2015-12-01 22:25:00 000",400.451,0.746676,1.92667,0.0120039,10100.9,133.151
"2015-12-01 22:35:00 000",400.800,0.777143,1.92575,0.00975761,9941.04,122.958
"2015-12-01 22:45:00 000",401.014,0.718141,1.92706,0.00905043,9816.41,114.945
"2015-12-01 22:55:00 000",401.023,0.787490,1.94594,0.0148423,9767.43,110.781
"2015-12-01 23:05:00 000",400.854,0.783646,1.95299,0.0246404,9688.78,114.979
"2015-12-01 23:15:00 000",400.583,0.759614,1.94339,0.0127066,9561.34,116.774
"2015-12-01 23:25:00 000",400.347,0.725445,1.96171,0.0222760,9438.83,122.512
"2015-12-01 23:35:00 000",400.557,0.733801,2.00367,0.0249613,9345.50,120.098
"2015-12-01 23:45:00 000",400.593,0.742957,1.95749,0.0193062,9288.73,112.862
"2015-12-01 23:55:00 000",400.788,0.746246,1.93999,0.0139834,9224.34,113.786
"2015-12-02 00:05:00 000",400.575,0.778709,1.98513,0.0372593,9153.70,122.798
"2015-12-02 00:15:00 000",400.437,0.857480,2.04977,0.0470477,8984.69,132.500
"2015-12-02 00:25:00 000",401.027,0.784017,2.07941,0.0349685,8989.52,113.730
"2015-12-02 00:35:00 000",401.070,0.755810,2.03596,0.0420915,8974.84,116.208
"2015-12-02 00:45:00 000",401.182,0.779456,1.94630,0.0418589,8964.85,108.641
"2015-12-02 00:55:00 000",401.303,0.774630,1.91278,0.00414722,8980.95,112.792
"2015-12-02 01:05:00 000",401.233,0.756427,1.91154,0.00403560,9042.85,122.703
"2015-12-02 01:15:00 000",401.541,0.810228,1.91344,0.00396671,9130.58,121.453
"2015-12-02 01:25:00 000",401.471,0.764523,1.91644,0.00415130,9130.09,119.371
"2015-12-02 01:35:00 000",401.210,0.784971,1.91940,0.00384265,9139.62,112.122
"2015-12-02 01:45:00 000",401.458,0.794169,1.92055,0.00399129,9085.56,113.569
"2015-12-02 01:55:00 000",401.439,0.804559,1.92129,0.00408425,9060.65,113.859
"2015-12-02 02:05:00 000",401.176,0.774899,1.92065,0.00400643,9008.11,115.828
"2015-12-02 02:15:00 000",401.460,0.792757,1.91936,0.00396814,8935.10,122.058
"2015-12-02 02:25:00 000",401.790,0.819226,1.97595,0.0561647,8896.01,113.439
"2015-12-02 02:35:00 000",401.583,0.814187,2.01212,0.0734899,8849.23,112.058
"2015-12-02 02:45:00 000",401.446,0.757464,1.93451,0.0187988,8736.11,116.367
"2015-12-02 02:55:00 000",401.510,0.756710,1.92071,0.00768339,8685.67,117.547
"2015-12-02 03:05:00 000",401.535,0.804105,1.91778,0.00427106,8641.04,111.847
"2015-12-02 03:15:00 000",402.024,0.722035,1.91947,0.00404450,8658.60,115.438
"2015-12-02 03:25:00 000",401.995,0.782048,1.92128,0.00405705,8700.76,118.040
"2015-12-02 03:35:00 000",402.227,0.764216,1.92310,0.00394215,8706.63,110.259
"2015-12-02 03:45:00 000",402.220,0.746456,1.92478,0.00374912,8720.26,110.215
"2015-12-02 03:55:00 000",402.627,0.834025,1.92354,0.00426425,8733.49,116.414
"2015-12-02 04:05:00 000",402.106,0.840894,1.92191,0.00431745,8618.40,137.211
"2015-12-02 04:15:00 000",402.441,0.950258,1.91836,0.00409662,8485.31,114.734
"2015-12-02 04:25:00 000",402.273,0.971477,1.91450,0.00459529,8444.14,117.308
"2015-12-02 04:35:00 000",401.494,0.875643,1.91247,0.00439424,8303.23,118.232
"2015-12-02 04:45:00 000",401.557,0.835033,1.91169,0.00413738,8204.45,109.712
"2015-12-02 04:55:00 000",401.745,0.806902,1.90883,0.00403761,8102.64,123.036
"2015-12-02 05:05:00 000",401.318,0.816505,1.90715,0.00389935,7977.73,113.899
"2015-12-02 05:15:00 000",401.335,0.799153,1.90792,0.00399980,7905.10,109.783
"2015-12-02 05:25:00 000",401.792,0.790058,1.91140,0.00417902,7919.36,113.700
"2015-12-02 05:35:00 000",402.271,0.761982,1.91622,0.00419617,7974.12,114.069
"2015-12-02 05:45:00 000",402.024,0.879611,1.91698,0.00396263,7962.90,112.312
"2015-12-02 05:55:00 000",402.274,0.844969,1.91636,0.00407947,7882.22,106.199
"2015-12-02 06:05:00 000",402.054,0.913901,1.91436,0.00392960,7841.71,115.351
"2015-12-02 06:15:00 000",400.874,0.868175,1.91233,0.00483746,7665.51,124.583
"2015-12-02 06:25:00 000",400.923,0.861275,1.92369,0.0232022,7538.36,100.159
"2015-12-02 06:35:00 000",401.590,0.779931,1.97419,0.0223110,7502.64,107.451
"2015-12-02 06:45:00 000",401.776,0.754621,1.95226,0.0312391,7530.90,103.063
"2015-12-02 06:55:00 000",402.631,0.839997,1.92033,0.00429344,7618.97,113.143
"2015-12-02 07:05:00 000",403.112,0.813234,1.91922,0.00390333,7685.37,109.019
"2015-12-02 07:15:00 000",403.303,0.902245,1.92035,0.00386883,7717.28,114.277
"2015-12-02 07:25:00 000",403.096,0.973460,1.92196,0.00387319,7657.70,113.779
"2015-12-02 07:35:00 000",403.274,0.873799,1.92472,0.00397109,7662.59,110.613
"2015-12-02 07:45:00 000",403.664,0.807133,1.92734,0.00429239,7669.73,110.427
"2015-12-02 07:55:00 000",404.228,0.949071,1.92795,0.00388927,7640.42,117.949
"2015-12-02 08:05:00 000",404.757,0.869322,1.92970,0.00392103,7694.61,113.215
"2015-12-02 08:15:00 000",404.427,0.878461,1.93196,0.00404651,7687.56,111.260
"2015-12-02 08:25:00 000",403.583,0.942938,1.92818,0.00419376,7645.17,114.369
"2015-12-02 08:35:00 000",402.713,1.12781,1.92438,0.00559470,7506.88,126.654
"2015-12-02 08:45:00 000",402.254,0.965211,1.92332,0.00435325,7428.83,109.489
"2015-12-02 08:55:00 000",402.108,0.942442,1.92855,0.00468424,7410.72,108.043
"2015-12-02 09:05:00 000",401.767,0.904851,1.92981,0.00539596,7384.03,109.033
"2015-12-02 09:15:00 000",401.338,0.889439,1.92257,0.00522508,7399.59,108.902
"2015-12-02 09:25:00 000",401.927,0.820700,1.92308,0.00409700,7446.67,106.196
"2015-12-02 09:35:00 000",402.303,0.871051,1.92303,0.00410602,7456.49,101.805
"2015-12-02 09:45:00 000",402.090,0.809596,1.92331,0.00380317,7434.09,106.953
"2015-12-02 09:55:00 000",401.687,0.838653,1.92245,0.00393419,7355.31,110.380
"2015-12-02 10:05:00 000",402.172,0.807387,1.92135,0.00403008,7313.92,99.0366
"2015-12-02 10:15:00 000",402.194,0.842588,1.92104,0.00402335,7305.73,93.1552
"2015-12-02 10:25:00 000",402.347,0.898269,1.92161,0.00393050,7311.64,100.104
"2015-12-02 10:35:00 000",402.152,0.857468,1.92175,0.00420555,7303.92,94.3580
"2015-12-02 10:45:00 000",402.933,1.05905,1.92188,0.00412749,7315.73,96.3562
"2015-12-02 10:55:00 000",403.882,0.993737,1.92363,0.00375685,7378.84,105.055
"2015-12-02 11:05:00 000",405.636,1.40238,1.92561,0.00393958,7421.44,97.8303
"2015-12-02 11:15:00 000",405.709,1.15952,1.92653,0.00403528,7511.64,93.3609
"2015-12-02 11:25:00 000",405.843,1.18342,1.92530,0.00411445,7554.11,97.6852
"2015-12-02 11:35:00 000",404.533,1.10820,1.92353,0.00383377,7548.54,93.9045
"2015-12-02 11:45:00 000",403.040,0.879077,1.92245,0.00403245,7504.42,82.7093
"2015-12-02 11:55:00 000",402.596,0.816425,1.92225,0.00398205,7511.03,92.8579
"2015-12-02 12:05:00 000",402.338,0.800510,1.92211,0.00391223,7518.00,94.9221
"2015-12-02 12:15:00 000",401.960,0.875764,1.92052,0.00400613,7550.06,93.1408
"2015-12-02 12:25:00 000",401.622,0.828970,1.91915,0.00451957,7523.81,90.5248
"2015-12-02 12:35:00 000",401.444,0.797277,1.91488,0.00474509,7474.17,99.6493
"2015-12-02 12:45:00 000",401.580,0.801062,1.92296,0.00829392,7461.87,97.7711
"2015-12-02 12:55:00 000",404.874,2.25542,1.91286,0.00433993,7446.62,102.568
"2015-12-02 13:05:00 000",409.682,1.28873,1.91353,0.00393181,7578.21,107.665
"2015-12-02 13:15:00 000",406.133,1.78562,1.91184,0.00398218,7522.58,112.244
"2015-12-02 13:25:00 000",403.280,1.40708,1.91306,0.00400704,7421.53,115.658
"2015-12-02 13:35:00 000",402.482,1.17125,1.91347,0.00399747,7431.00,102.270
"2015-12-02 13:45:00 000",400.805,0.790781,1.91346,0.00373782,7449.53,104.350
"2015-12-02 13:55:00 000",401.284,0.955297,1.91348,0.00406503,7470.89,110.888
"2015-12-02 14:05:00 000",400.878,0.883405,1.91546,0.00411595,7532.40,112.189
"2015-12-02 14:15:00 000",400.280,0.717652,1.91318,0.00428597,7504.82,104.664
"2015-12-02 14:25:00 000",399.762,0.808995,1.90951,0.00386593,7468.92,113.600
"2015-12-02 14:35:00 000",399.416,0.753356,1.90755,0.00397991,7495.50,110.844
"2015-12-02 14:45:00 000",399.424,0.769531,1.90901,0.00399189,7506.56,109.556
"2015-12-02 14:55:00 000",399.255,0.775199,1.90849,0.00404286,7489.05,113.464
"2015-12-02 15:05:00 000",398.955,0.724641,1.90906,0.00397919,7460.10,115.393
"2015-12-02 15:15:00 000",399.278,0.759846,1.90920,0.00396598,7459.57,111.026
"2015-12-02 15:25:00 000",399.925,0.845642,1.91153,0.00421319,7464.75,111.173
"2015-12-02 15:35:00 000",399.565,0.810590,1.91285,0.00405490,7427.89,107.993
"2015-12-02 15:45:00 000",399.743,0.762338,1.91289,0.00413034,7379.30,109.251
"2015-12-02 15:55:00 000",399.671,0.787403,1.91765,0.00412111,7387.01,108.449
"2015-12-02 16:05:00 000",399.897,0.765691,1.91896,0.00415214,7369.91,100.402
"2015-12-02 16:15:00 000",400.227,0.787855,1.92048,0.00376569,7395.12,103.122
"2015-12-02 16:25:00 000",402.092,0.992207,1.91963,0.00416900,7363.92,99.3873
"2015-12-02 16:35:00 000",402.501,0.789646,1.91935,0.00452992,7336.49,90.9348
"2015-12-02 16:45:00 000",401.313,1.00427,1.91921,0.00390278,7340.09,89.8360
"2015-12-02 16:55:00 000",401.000,0.848512,1.91735,0.00402753,7295.74,82.9468
"2015-12-02 17:05:00 000",401.521,0.789171,1.91979,0.00399265,7280.21,87.5981
"2015-12-02 17:15:00 000",401.710,0.904408,1.91763,0.00423702,7237.45,87.5799
"2015-12-02 17:25:00 000",402.061,0.809372,1.91493,0.00420431,7225.33,81.8042
"2015-12-02 17:35:00 000",402.035,0.863728,1.91177,0.00401648,7214.04,87.0922
"2015-12-02 17:45:00 000",402.270,0.907351,1.91166,0.00359273,7202.13,87.5525
"2015-12-02 17:55:00 000",404.856,1.96238,1.91422,0.00394438,7208.53,91.6237
"2015-12-02 18:05:00 000",410.472,2.04233,1.91431,0.00393594,7264.08,85.2365
"2015-12-02 18:15:00 000",411.997,1.06513,1.90944,0.00386018,7299.14,86.8675
"2015-12-02 18:25:00 000",411.716,0.972625,1.91167,0.00401921,7240.82,92.1190
"2015-12-02 18:35:00 000",413.039,1.30031,1.91090,0.00382533,7171.59,100.862
"2015-12-02 18:45:00 000",411.565,1.13878,1.90822,0.00366508,7125.17,87.7613
"2015-12-02 18:55:00 000",410.244,2.05335,1.91062,0.00389352,7118.54,88.8326
"2015-12-02 19:05:00 000",407.765,1.52282,1.91107,0.00390464,7059.11,90.9788
"2015-12-02 19:15:00 000",407.340,1.14673,1.91310,0.00391227,7028.43,82.0269
"2015-12-02 19:25:00 000",408.627,1.59190,1.91259,0.00377533,7039.81,86.8922
"2015-12-02 19:35:00 000",409.466,1.50270,1.91501,0.00426398,7030.05,89.7358
"2015-12-02 19:45:00 000",410.535,1.52675,1.91905,0.00368298,7046.88,88.7414
"2015-12-02 19:55:00 000",404.855,2.39355,1.91209,0.00513514,7022.53,112.639
"2015-12-02 20:05:00 000",403.895,1.74228,1.90864,0.00426279,6900.12,90.0226
"2015-12-02 20:15:00 000",401.705,2.13314,1.90434,0.00465113,6919.43,97.5275
"2015-12-02 20:25:00 000",409.967,4.92907,1.90535,0.00424610,6899.17,94.8302
"2015-12-02 20:35:00 000",411.414,2.15182,1.90338,0.00360537,6971.17,84.5677
"2015-12-02 20:45:00 000",407.436,1.96731,1.89931,0.00425769,6921.38,88.9934
"2015-12-02 20:55:00 000",408.277,2.86564,1.89652,0.00381619,6899.91,83.7291
"2015-12-02 21:05:00 000",403.027,2.15989,1.89543,0.00385093,6786.73,83.9437
"2015-12-02 21:15:00 000",401.299,1.23436,1.89679,0.00346852,6794.00,90.0051
"2015-12-02 21:25:00 000",401.287,1.12485,1.89590,0.00391466,6803.44,86.1487
"2015-12-02 21:35:00 000",400.670,1.37532,1.89701,0.00363345,6816.40,81.4266
"2015-12-02 21:45:00 000",400.287,0.928480,1.89480,0.00397116,6845.07,84.4301
"2015-12-02 21:55:00 000",400.004,1.25385,1.89326,0.00381537,6875.49,83.3339
"2015-12-02 22:05:00 000",400.881,1.05321,1.89511,0.00376926,6877.04,80.5202
"2015-12-02 22:15:00 000",400.656,1.12469,1.89430,0.00393090,6869.48,82.7734
"2015-12-02 22:25:00 000",400.291,1.00817,1.89265,0.00368977,6851.87,83.2799
"2015-12-02 22:35:00 000",400.873,1.21526,1.89305,0.00371300,6877.21,82.5635
"2015-12-02 22:45:00 000",400.641,0.802611,1.89355,0.00375719,6916.68,84.6730
"2015-12-02 22:55:00 000",400.539,0.839658,1.89570,0.00382522,6952.67,82.6760
"2015-12-02 23:05:00 000",400.339,0.863649,1.89696,0.00384226,6921.36,84.6204
"2015-12-02 23:15:00 000",400.370,0.838876,1.89639,0.00414021,6934.69,83.2189
"2015-12-02 23:25:00 000",400.437,0.770086,1.89594,0.00399729,6931.53,83.7626
"2015-12-02 23:35:00 000",400.494,0.960401,1.89551,0.00357856,6923.40,79.1965
"2015-12-02 23:45:00 000",400.659,1.03816,1.89515,0.00360347,6873.62,83.4707
"2015-12-02 23:55:00 000",400.564,0.750192,1.89510,0.00347628,6882.58,84.7972
"2015-12-03 00:05:00 000",401.017,1.00274,1.89624,0.00363592,6914.55,83.9656
"2015-12-03 00:15:00 000",400.724,0.791059,1.89718,0.00373515,6930.12,80.0732
"2015-12-03 00:25:00 000",400.788,0.808101,1.89787,0.00372152,6949.68,82.2614
"2015-12-03 00:35:00 000",400.766,0.809634,1.89763,0.00385748,6944.71,82.3322
"2015-12-03 00:45:00 000",400.873,0.809666,1.89677,0.00349814,6951.96,82.5093
"2015-12-03 00:55:00 000",400.871,0.812638,1.89675,0.00346162,6973.80,79.6156
"2015-12-03 01:05:00 000",401.509,0.864879,1.89807,0.00388307,6998.87,80.0560
"2015-12-03 01:15:00 000",401.977,0.790620,1.89872,0.00373777,7033.88,80.0446
"2015-12-03 01:25:00 000",401.880,0.834656,1.89947,0.00394921,7052.11,79.8848
"2015-12-03 01:35:00 000",401.597,0.814817,1.90215,0.00408903,7021.00,85.0029
"2015-12-03 01:45:00 000",401.507,0.745427,1.90166,0.00365272,7023.19,85.2060
"2015-12-03 01:55:00 000",401.904,0.826903,1.90309,0.00382292,7023.55,83.0859